Location: Unspecified
(0.0000°N, 0.0000°E)
Time: 00:31:37
(UTC+00:00)

Vanguard 1 - All Passes

Search period start: 29 June 2017 00:00
Search period end: 09 July 2017 00:00
Orbit: 654 x 3830 km, 34.2° (Epoch: 28 June)

Date Brightness Start Highest point End Pass type
(mag) Time Alt. Az. Time Alt. Az. Time Alt. Az.
29 Jun - 00:28:20 10° SSW 00:47:55 41° SSE 01:08:10 10° E visible
29 Jun - 02:52:28 10° SW 03:16:30 87° SE 03:34:46 10° NE visible
29 Jun - 05:22:59 10° W 05:42:24 39° NW 05:55:11 10° NNE visible
29 Jun - 15:15:25 10° NW 15:19:54 84° SW 15:26:09 10° SE daylight
29 Jun - 17:37:58 10° SW 17:41:59 16° SSW 17:47:20 10° SSE daylight
29 Jun - 22:27:53 10° SSW 22:40:07 21° SSE 22:55:14 10° ESE visible
30 Jun - 00:49:22 10° SW 01:10:14 50° SE 01:31:06 10° ENE visible
30 Jun - 03:14:19 10° WSW 03:38:14 78° NW 03:56:00 10° NE visible
30 Jun - 05:47:08 10° W 06:04:03 29° NW 06:15:36 10° NNE daylight
30 Jun - 13:18:19 10° N 13:21:00 15° NNE 13:23:42 10° ENE daylight
30 Jun - 15:36:41 10° WNW 15:41:05 45° SSW 15:47:16 10° SE daylight
30 Jun - 18:01:47 10° SSW 18:04:10 11° SSW 18:06:55 10° S daylight
30 Jun - 20:30:40 10° S 20:32:13 10° S 20:33:51 10° SSE visible
30 Jun - 22:48:48 10° SSW 23:03:05 26° SSE 23:20:40 10° ESE visible
01 Jul - 01:10:29 10° SW 01:32:21 62° SE 01:53:30 10° ENE visible
01 Jul - 03:36:31 10° WSW 03:59:54 64° NW 04:17:02 10° NE visible
01 Jul - 06:12:12 10° W 06:25:57 22° NW 06:35:49 10° N daylight
01 Jul - 13:38:13 10° NNW 13:42:10 29° NE 13:46:16 10° E daylight
01 Jul - 15:58:26 10° W 16:02:29 26° SSW 16:07:58 10° SSE daylight
01 Jul - 20:50:53 10° S 20:55:31 12° SSE 21:00:52 10° SE visible
01 Jul - 23:09:38 10° SSW 23:25:42 33° SSE 23:45:17 10° E visible
02 Jul - 01:31:44 10° SW 01:54:18 75° SE 02:15:28 10° ENE visible
02 Jul - 03:59:12 10° WSW 04:21:34 51° NW 04:37:53 10° NE visible
02 Jul - 06:38:18 10° WNW 06:48:10 16° NNW 06:55:46 10° N daylight
02 Jul - 13:58:48 10° NW 14:03:13 57° NE 14:08:01 10° ESE daylight
02 Jul - 16:20:49 10° WSW 16:24:06 16° SSW 16:28:11 10° SSE daylight
02 Jul - 21:11:16 10° S 21:18:41 15° SSE 21:27:53 10° SE visible
02 Jul - 23:30:27 10° SSW 23:48:00 41° SE 00:09:06 10° E visible
03 Jul - 01:53:12 10° SW 02:16:09 89° SE 02:37:04 10° NE visible
03 Jul - 04:22:28 10° W 04:43:21 40° NW 04:58:36 10° NNE visible
03 Jul - 07:05:49 10° NW 07:10:43 12° NNW 07:14:57 10° N daylight
03 Jul - 12:02:27 10° N 12:03:40 11° NNE 12:04:48 10° NE daylight
03 Jul - 14:19:50 10° WNW 14:24:15 70° SW 14:29:17 10° SE daylight
03 Jul - 16:45:17 10° SSW 16:45:56 10° SSW 16:46:37 10° SSW daylight
03 Jul - 21:31:41 10° SSW 21:41:37 19° SSE 21:54:28 10° ESE visible
03 Jul - 23:51:19 10° SW 00:10:04 51° SE 00:32:13 10° ENE visible
04 Jul - 02:14:55 10° WSW 02:37:57 77° NW 02:58:25 10° NE visible
04 Jul - 04:46:28 10° W 05:05:19 32° NW 05:19:12 10° NNE visible
04 Jul - 12:21:26 10° NNW 12:25:10 19° NNE 12:28:25 10° ENE daylight
04 Jul - 14:41:19 10° W 14:45:23 35° SSW 14:50:07 10° SSE daylight
04 Jul - 21:52:09 10° SSW 22:04:12 24° SSE 22:20:16 10° E visible
05 Jul - 00:12:17 10° SW 00:31:58 63° SE 00:54:46 10° ENE visible
05 Jul - 02:36:59 10° WSW 02:59:46 63° NW 03:19:32 10° NE visible
05 Jul - 05:11:20 10° W 05:27:34 25° NNW 05:39:44 10° NNE visible
05 Jul - 12:41:45 10° NNW 12:46:28 35° NNE 12:50:31 10° E daylight
05 Jul - 15:03:24 10° WSW 15:06:41 20° SSW 15:10:27 10° SSE daylight
05 Jul - 22:12:40 10° SSW 22:26:27 31° SE 22:45:09 10° E visible
06 Jul - 00:33:24 10° SW 00:53:47 76° SE 01:16:51 10° ENE visible
06 Jul - 02:59:31 10° WSW 03:21:40 51° NW 03:40:31 10° NE visible
06 Jul - 05:37:05 10° WNW 05:50:08 19° NNW 06:00:12 10° NNE visible
06 Jul - 10:45:30 10° NNE 10:45:53 10° NNE 10:46:16 10° NNE daylight
06 Jul - 13:02:34 10° NW 13:07:37 69° NE 13:12:01 10° ESE daylight
06 Jul - 15:26:52 10° SW 15:28:11 11° SSW 15:29:33 10° S daylight
06 Jul - 20:17:07 10° S 20:21:03 11° SSE 20:25:34 10° SE visible
06 Jul - 22:33:16 10° SSW 22:48:26 40° SE 23:09:12 10° E visible
07 Jul - 00:54:45 10° SW 01:15:36 90° NW 01:38:35 10° NE visible
07 Jul - 03:22:36 10° W 03:43:44 41° NW 04:01:23 10° NNE visible
07 Jul - 06:03:38 10° NW 06:13:03 15° NNW 06:20:38 10° N daylight
07 Jul - 11:03:40 10° NNW 11:07:44 16° NNE 11:10:59 10° ENE daylight
07 Jul - 13:23:48 10° WNW 13:28:39 59° SW 13:33:04 10° SE daylight
07 Jul - 20:36:10 10° S 20:43:37 16° SSE 20:53:13 10° ESE visible
07 Jul - 22:53:59 10° SSW 23:10:12 50° SE 23:32:30 10° ENE visible
08 Jul - 01:16:20 10° WSW 01:37:26 75° NW 02:00:02 10° NE visible
08 Jul - 03:46:23 10° W 04:06:02 33° NNW 04:22:13 10° NNE visible
08 Jul - 06:30:36 10° NW 06:36:12 12° NNW 06:41:02 10° N daylight
08 Jul - 11:23:51 10° NNW 11:29:22 26° NNE 11:33:25 10° E daylight
08 Jul - 13:45:33 10° W 13:49:41 30° SW 13:53:40 10° SSE daylight
08 Jul - 20:56:05 10° S 21:05:50 22° SE 21:19:23 10° ESE visible
